This demonstration page uses our WeatherBlox Daily Observations layout. Learn more.

Left ArrowRight Arrow

38.88101, -77.10428

Hourly Observations for November 23, 2021

Temp ( °F °C ) Dew Point ( °F °C ) Humidity (%) Winds ( mph kmh ) Pressure ( in mb ) Visibility ( mi km ) Precip ( " mm )
12:52 am 00:52 Partly Cloudy 35 1.7 18 -7.8 50 50 NW 7 11 30.06 1018 10 16 0.00 0.00
1:52 am 01:52 Partly Cloudy 35 1.7 17 -8.3 48 48 NNW 9 15 30.06 1018 10 16 0.00 0.00
2:52 am 02:52 Partly Cloudy 34 1.1 16 -8.9 48 48 NNW 7 11 30.07 1018 10 16 0.00 0.00
3:52 am 03:52 Partly Cloudy 33 0.6 16 -8.9 49 49 NNW 8 13 30.07 1018 10 16 0.00 0.00
4:52 am 04:52 Mostly Clear 34 1.1 17 -8.3 50 50 NW 9 15 30.09 1019 10 16 0.00 0.00
5:52 am 05:52 Mostly Clear 34 1.1 17 -8.3 50 50 NW 12 19 30.11 1020 10 16 0.00 0.00
6:52 am 06:52 Mostly Clear 34 1.1 18 -7.8 52 52 NW 14 22 30.12 1020 10 16 0.00 0.00
7:52 am 07:52 Sunny 36 2.2 19 -7.2 50 50 NW 13 20 30.13 1020 10 16 0.00 0.00
8:52 am 08:52 Sunny 38 3.3 20 -6.7 48 48 NW 12 19 30.15 1021 10 16 0.00 0.00
9:52 am 09:52 Sunny 40 4.4 20 -6.7 45 45 NW 15 24 30.16 1021 10 16 0.00 0.00
10:52 am 10:52 Mostly Sunny 42 5.6 20 -6.7 41 41 NW 17 28 30.16 1021 10 16 0.00 0.00
11:52 am 11:52 Mostly Sunny 43 6.1 19 -7.2 38 38 WNW 16 26 30.14 1021 10 16 0.00 0.00
12:52 pm 12:52 Partly Cloudy 44 6.7 18 -7.8 35 35 NW 15 24 30.13 1020 10 16 0.00 0.00
1:52 pm 13:52 Partly Cloudy 45 7.2 18 -7.8 34 34 NNW 17 28 30.13 1020 10 16 0.00 0.00
2:52 pm 14:52 Partly Cloudy 44 6.7 16 -8.9 32 32 NW 17 28 30.14 1021 10 16 0.00 0.00
3:52 pm 15:52 Mostly Sunny 43 6.1 15 -9.4 32 32 WNW 13 20 30.17 1022 10 16 0.00 0.00
4:52 pm 16:52 Mostly Cloudy 42 5.6 15 -9.4 33 33 NW 9 15 30.19 1022 10 16 0.00 0.00
5:52 pm 17:52 Partly Cloudy 41 5 15 -9.4 35 35 NW 12 19 30.22 1023 10 16 0.00 0.00
6:52 pm 18:52 Mostly Clear 40 4.4 14 -10 35 35 WNW 13 20 30.24 1024 10 16 0.00 0.00
7:52 pm 19:52 Mostly Clear 39 3.9 15 -9.4 38 38 WNW 12 19 30.26 1025 10 16 0.00 0.00
8:52 pm 20:52 Mostly Clear 39 3.9 15 -9.4 38 38 NW 13 20 30.27 1025 10 16 0.00 0.00
9:52 pm 21:52 Mostly Clear 38 3.3 14 -10 37 37 WNW 7 11 30.28 1025 10 16 0.00 0.00
10:52 pm 22:52 Mostly Clear 37 2.8 14 -10 39 39 WNW 8 13 30.29 1026 10 16 0.00 0.00
11:52 pm 23:52 Clear 37 2.8 15 -9.4 41 41 WNW 8 13 30.30 1026 10 16 0.00 0.00

Powered by AerisWeather